Change the Weather History Date:

Monday, January 6, 2014

  Actual Average Record
Temperature  
Mean Temperature 40 °F -  
Max Temperature 50 °F 32 °F 69 °F (2007)
Min Temperature 28 °F 18 °F -7 °F (1977)
Degree Days  
Heating Degree Days 26    
Moisture  
Dew Point 40 °F    
Average Humidity 95    
Maximum Humidity 100    
Minimum Humidity 52    
Precipitation  
Precipitation 0.46 in - - ()
Snow  
Snow 0.00 in - - ()
Snow Depth 8.00 in    
Sea Level Pressure  
Sea Level Pressure 29.47 in    
Wind  
Wind Speed 11 mph (SSW)    
Max Wind Speed 21 mph    
Max Gust Speed 25 mph    
Visibility 4 miles    
Events Fog , Rain    
Averages and records for this station are not official NWS values.
T = Trace of Precipitation, MM = Missing Value Source: NWS Daily Summary

Daily Weather History Graph

Daily Weather History Graph

Search for Another Location

Airport or City:

Trip Planner

Search our weather history database for the weather conditions in past years. The results will help you decide how hot, cold, wet, or windy it might be!

Date:

Astronomy

Jan. 06, 2014 Rise Set
Actual Time 7:14 AM EST 4:23 PM EST
Civil Twilight 6:42 AM EST 4:55 PM EST
Nautical Twilight 6:07 AM EST 5:31 PM EST
Astronomical Twilight 5:32 AM EST 6:05 PM EST
Moon 10:18 AM EST (1/6) 11:04 PM EST (1/6)
Length of Visible Light 10h 13m
Length of Day
9h 09m
Waxing Crescent, 34% of the Moon is Illuminated
Jan 6
Waxing Crescent
Jan 7
First Quarter
Jan 15
Full
Jan 24
Last Quarter
Jan 30
New

Hourly Weather History & Observations

Time (EST) Temp. Windchill Dew Point Humidity Pressure Visibility Wind Dir Wind Speed Gust Speed Precip Events Conditions
12:13 AM 32.0 °F 26.4 °F 32.0 °F 100% 29.96 in 0.8 mi NNE 5.8 mph - N/A Rain Light Rain
12:58 AM 35.4 °F 29.0 °F 35.1 °F 99% 29.93 in 0.8 mi NE 8.1 mph - 0.07 in Rain Light Rain
1:43 AM 35.6 °F 28.0 °F 35.6 °F 100% 29.86 in 1.2 mi NNE 10.4 mph - N/A Rain Light Rain
1:58 AM 36.9 °F 29.1 °F 36.7 °F 99% 29.87 in 0.8 mi NE 11.5 mph - 0.12 in Rain Light Rain
2:58 AM 38.3 °F 33.2 °F 38.3 °F 100% 29.82 in 0.5 mi NE 6.9 mph - 0.04 in Fog Light Drizzle
3:08 AM 39.2 °F 35.0 °F 39.2 °F 100% 29.78 in 0.1 mi ENE 5.8 mph - N/A Fog Light Drizzle
3:58 AM 44.6 °F 38.4 °F 44.6 °F 100% 29.73 in 0.1 mi SE 12.7 mph - 0.00 in Fog Light Drizzle
4:40 AM 42.8 °F 35.4 °F 42.8 °F 100% 29.67 in 0.1 mi SE 15.0 mph - N/A Fog Light Drizzle
4:58 AM 43.0 °F 36.4 °F 43.0 °F 100% 29.67 in 0.1 mi SE 12.7 mph - 0.02 in Fog , Rain Light Rain
5:28 AM 44.6 °F 37.2 °F 44.6 °F 100% 29.62 in 0.1 mi SSE 17.3 mph 23.0 mph N/A Fog Light Drizzle
5:58 AM 44.1 °F 36.5 °F 44.1 °F 100% 29.62 in 2.0 mi SSE 17.3 mph 24.2 mph 0.03 in Rain Light Rain
6:38 AM 44.6 °F 37.8 °F 44.6 °F 100% 29.58 in 0.1 mi SSE 15.0 mph 25.3 mph N/A Fog Light Drizzle
6:58 AM 45.3 °F 37.8 °F 45.3 °F 100% 29.58 in 0.1 mi SSE 18.4 mph - 0.04 in Fog Light Drizzle
7:10 AM 44.6 °F 38.1 °F 44.6 °F 100% 29.56 in 0.1 mi SSE 13.8 mph - N/A Fog Light Drizzle
7:43 AM 44.6 °F 37.8 °F 44.6 °F 100% 29.54 in 0.1 mi SSE 15.0 mph - N/A Fog Light Drizzle
7:58 AM 44.8 °F 37.7 °F 44.8 °F 100% 29.55 in 0.1 mi SSE 16.1 mph - 0.01 in Fog Light Drizzle
8:58 AM 46.6 °F - 46.6 °F 100% 29.50 in 0.1 mi SSE 18.4 mph - 0.00 in Fog Light Drizzle
9:58 AM 45.9 °F 38.0 °F 45.9 °F 100% 29.44 in 0.1 mi SE 20.7 mph - 0.00 in Fog , Rain Light Rain
10:58 AM 45.9 °F 38.3 °F 45.9 °F 100% 29.39 in 0.2 mi SSE 19.6 mph - 0.02 in Fog , Rain Light Rain
11:13 AM 46.4 °F 39.5 °F 46.4 °F 100% 29.35 in 0.5 mi SSE 17.3 mph - N/A Fog , Rain Light Rain
11:43 AM 46.4 °F 38.7 °F 46.4 °F 100% 29.30 in 0.1 mi SSE 20.7 mph - N/A Fog , Rain Light Rain
11:58 AM 46.6 °F - 46.6 °F 100% 29.31 in 0.1 mi SSE 16.1 mph - 0.05 in Fog Fog
12:58 PM 48.6 °F - 48.6 °F 100% 29.29 in 0.2 mi South 8.1 mph - N/A Fog Fog
1:09 PM 48.2 °F - 48.2 °F 100% 29.28 in 6.0 mi West 13.8 mph - N/A Rain Light Rain
1:18 PM 48.2 °F - 48.2 °F 100% 29.26 in 7.0 mi SSE 10.4 mph - N/A Rain Light Rain
1:31 PM 50.0 °F - 50.0 °F 100% 29.24 in 2.0 mi Variable 2.3 mph - N/A Rain Light Rain
1:37 PM 50.0 °F - 50.0 °F 100% 29.25 in 0.1 mi WNW 8.1 mph - N/A Fog , Rain Light Rain
1:46 PM 48.2 °F - 48.2 °F 100% 29.24 in 6.0 mi WNW 6.9 mph - N/A Fog Patches of Fog
1:58 PM 47.8 °F - 47.8 °F 100% 29.26 in 7.0 mi WNW 8.1 mph - 0.00 in   Overcast
2:28 PM 46.4 °F 41.5 °F 46.4 °F 100% 29.28 in 10.0 mi West 10.4 mph - N/A   Overcast
2:41 PM 46.4 °F 42.9 °F 46.4 °F 100% 29.28 in 4.0 mi West 6.9 mph - N/A Rain Light Rain
2:58 PM 45.5 °F 41.3 °F 45.5 °F 100% 29.29 in 6.0 mi West 8.1 mph - 0.00 in Rain Light Rain
3:58 PM 42.3 °F 37.3 °F 42.3 °F 100% 29.32 in 10.0 mi West 8.1 mph - 0.06 in   Mostly Cloudy
4:28 PM 41.0 °F 36.4 °F 41.0 °F 100% 29.28 in 10.0 mi West 6.9 mph - N/A   Overcast
4:40 PM 41.0 °F 37.1 °F 41.0 °F 100% 29.30 in 10.0 mi West 5.8 mph - N/A Rain Light Rain
4:58 PM 40.3 °F 34.4 °F 40.1 °F 99% 29.32 in 10.0 mi West 9.2 mph - 0.00 in Rain Light Rain
5:38 PM 37.4 °F 29.3 °F 37.4 °F 100% 29.32 in 10.0 mi West 12.7 mph - N/A   Overcast
5:58 PM 37.4 °F 29.8 °F 36.0 °F 95% 29.34 in 10.0 mi West 11.5 mph 17.3 mph 0.00 in   Overcast
6:58 PM 36.5 °F 28.2 °F 30.7 °F 80% 29.35 in 10.0 mi West 12.7 mph 17.3 mph N/A   Mostly Cloudy
7:58 PM 34.9 °F 26.2 °F 25.9 °F 70% 29.39 in 10.0 mi West 12.7 mph 19.6 mph N/A   Mostly Cloudy
8:58 PM 32.2 °F 21.4 °F 21.4 °F 64% 29.39 in 10.0 mi West 16.1 mph 20.7 mph N/A   Overcast
9:58 PM 30.9 °F 21.2 °F 15.1 °F 52% 29.42 in 10.0 mi West 12.7 mph 21.9 mph N/A   Partly Cloudy
10:58 PM 29.5 °F 21.1 °F 17.1 °F 60% 29.44 in 10.0 mi West 9.2 mph - N/A   Partly Cloudy
11:58 PM 28.6 °F 19.3 °F 15.4 °F 58% 29.44 in 10.0 mi West 10.4 mph 20.7 mph N/A   Partly Cloudy